Powrót do katalogu

COSMOS 371

AktywnyMilitariaLEO
NORAD 4578·PAYLOAD·🇷🇺 Russia

Wystrzelony Oct 12, 1970 z Plesetsk Cosmodrome

Loading…

Następne Przeloty (najbliższe 24 godziny)

TLE

ŚwieżeSource: Space-Track

Epoka: Sep 14, 2026, 14:24 UTC

1  4578U 70083A   26257.60012580  .00000180  00000-0  47651-4 0  9992
2  4578  74.0002   3.8158 0003123 309.2386  50.8500 14.55863284958606

Śledź COSMOS 371 w czasie rzeczywistym z AllMySat

Download on the App Store